Weather Service Report


345 
ASUS43 KDMX 300707
RWRIA 

WEATHER ROUNDUP FOR IOWA
NATIONAL WEATHER SERVICE DES MOINES IA
200 AM CDT MON MAR 30 2015

NOTE: "FAIR" INDICATES FEW OR NO CLOUDS BELOW 12,000 FEET WITH NO
SIGNIFICANT WEATHER AND/OR OBSTRUCTIONS TO VISIBILITY.

* - THESE STATIONS ARE NOT NWS STATIONS...THUS NOT UNDER NWS
QUALITY CONTROL.  THEY ALSO DO NOT REPORT WEATHER SUCH 
AS PRECIPITATION OR FOG.  

IAZ001>003-012>014-020>022-031>034-043>046-300800-
   NORTHWEST IOWA
  
CITY           SKY/WX    TMP DP  RH WIND       PRES   REMARKS
CARROLL *      CLEAR     30  23  74 W5        30.09S WCI  25          
CHEROKEE *     CLEAR     30  25  80 CALM      30.08S                  
DENISON *      CLEAR     30  25  80 CALM      30.08S                  
LE MARS *      CLEAR     30  23  74 S3        30.08S                  
ORANGE CITY *  CLEAR     37  21  52 SW5       30.07R WCI  34          
SHELDON *      CLEAR     28  23  80 SW5       30.06R WCI  23          
SIOUX CITY     PTCLDY    33  21  61 E3        30.09R                  
SPENCER        CLEAR     28  23  81 SW5       30.05S WCI  23          
STORM LAKE *   CLEAR     37  23  56 SW9       30.08S WCI  31          
$$
 
IAZ055>058-069>071-079>083-090>094-300800-
   SOUTHWEST IOWA
  
CITY           SKY/WX    TMP DP  RH WIND       PRES   REMARKS
ATLANTIC *     CLEAR     28  23  80 CALM      30.12S                  
AUDUBON *      CLEAR     25  19  80 CALM      30.11S                  
CLARINDA *     CLEAR     30  27  86 CALM      30.15R                  
COUNCIL BLFS * CLEAR     43  25  49 SW7       30.11S                  
CRESTON *      CLEAR     39  25  56 W3        30.12S                  
HARLAN  *      CLEAR     32  23  69 CALM      30.14S                  
LAMONI         CLEAR     40  27  59 W7        30.12R                  
RED OAK *      CLEAR     32  25  74 CALM      30.13R                  
SHENANDOAH *   CLEAR     30  25  80 S3        30.14S                  
$$
 
IAZ047>049-059>061-072>074-084-300800-
   CENTRAL IOWA
  
CITY           SKY/WX    TMP DP  RH WIND       PRES   REMARKS
AMES           CLEAR     32  24  72 W12       30.08S WCI  23          
ANKENY *       CLEAR     34  25  69 CALM      30.10S                  
CHARITON *     CLEAR     39  25  56 W7        30.11S WCI  34          
DES MOINES     CLEAR     43  23  45 W3        30.10S                  
GRINNELL*      CLEAR     39  27  60 CALM      30.07F                  
KNOXVILLE *    CLEAR     39  23  52 W9        30.09S WCI  33          
MARSHALLTOWN   CLEAR     35  26  69 W6        30.06S WCI  30          
PELLA *        CLEAR     43  32  65 W6        30.10S                  
PERRY *          N/A     32  25  74 W6        30.09S WCI  26          
$$
 
IAZ004>006-015-016-023>025-035-036-300800-
   NORTH CENTRAL IOWA
  
CITY           SKY/WX    TMP DP  RH WIND       PRES   REMARKS
ALGONA *       CLEAR     36  27  69 SW9       30.05S WCI  29          
CLARION *      CLEAR     32  28  86 SW5       30.05S WCI  27          
ESTHERVILLE    CLEAR     32  24  72 SW9       30.03S WCI  24          
FORT DODGE *   CLEAR     34  25  69 CALM      30.07S                  
MASON CITY     CLEAR     33  25  72 W8        30.03F WCI  26          
FOREST CITY *  CLEAR     28  27  93 CALM      30.03F                  
IOWA FALLS *     N/A     34  27  75 SW9       30.07R WCI  26          
$$

IAZ007>011-017>019-026>030-037>042-050>054-066-300800-
   NORTHEAST IOWA
  
CITY           SKY/WX    TMP DP  RH WIND       PRES   REMARKS
CEDAR RAPIDS   CLEAR     35  28  75 W8        30.05R WCI  29          
CHARLES CITY * CLEAR     37  28  70 W8        30.03S WCI  31          
CLINTON *      CLEAR     34  28  80 W6        30.05R WCI  29          
DECORAH *      MOCLDY    37  30  75 VRB5      29.99S WCI  34          
DUBUQUE        CLEAR     36  28  73 W9        30.01R WCI  29          
MONTICELLO *   CLEAR     37  32  81 NW7       30.03S WCI  32          
OELWEIN *      CLEAR     36  28  75 W7        30.04R WCI  30          
WATERLOO       CLEAR     35  27  72 W6        30.04S WCI  30          
$$
 
IAZ064-065-067-068-078-300800-
   EAST CENTRAL IOWA
  
CITY           SKY/WX    TMP DP  RH WIND       PRES   REMARKS
DAVENPORT      CLEAR     33  27  78 W10       30.05R WCI  25          
IOWA CITY      CLEAR     34  27  75 W8        30.08R WCI  27          
MT. PLEASANT * CLEAR     39  27  60 W6        30.09S WCI  35          
MUSCATINE *    CLEAR     37  28  70 W7        30.07S WCI  32          
QUAD CITIES    CLEAR     43  30  60 W9        30.04R                  
$$
 
IAZ062-063-075>077-085>089-095>099-300800-
   SOUTHEAST IOWA
  
CITY           SKY/WX    TMP DP  RH WIND       PRES   REMARKS
BURLINGTON     CLEAR     42  28  57 W5        30.08R                  
FAIRFIELD *    CLEAR     37  25  60 W8        30.09S WCI  31          
FORT MADISON * CLEAR     39  28  65 W8        30.10S WCI  34          
KEOKUK *       CLEAR     45  27  49 NW6       30.10R                  
OSKALOOSA *      N/A     34  25  69 W9        30.09S WCI  26          
CENTERVILLE *  CLEAR     37  27  65 SW5       30.13R WCI  34          
OTTUMWA        CLEAR     35  23  61 W6        30.09S WCI  30          
WASHINGTON *   CLEAR     36  28  75 W6        30.08S WCI  31          
$$

ABBREVIATIONS USED IN REMARKS
   TC - TEMPERATURES IN CELSIUS
  WCI - WIND CHILL INDEX
   HX - HEAT INDEX
  VSB - VISIBILITY  
$$


Return to Home page


Western Regional Climate Center, wrcc@dri.edu